Weather History for Alexander City, AL

Change the Weather History Date:

Sunday, December 16, 2012

  Actual Average (KAUO) Record (KAUO)
Temperature  
Mean Temperature 62 °F -  
Max Temperature 67 °F - 75 °F (1971)
Min Temperature 57 °F - 15 °F (1958)
Degree Days  
Heating Degree Days 3    
Month to date heating degree days  
Since 1 July heating degree days  
Growing Degree Days 12 (Base 50)    
Moisture  
Dew Point 57 °F    
Average Humidity 84    
Maximum Humidity 90    
Minimum Humidity 72    
Precipitation  
Precipitation 1.77 in - 2.55 in (1970)
Month to date precipitation  
Year to date precipitation  
Sea Level Pressure  
Sea Level Pressure 29.96 in    
Wind  
Wind Speed 3 mph (SE)    
Max Wind Speed 9 mph    
Max Gust Speed 22 mph    
Visibility 8 miles    
Events Rain , Thunderstorm    
T = Trace of Precipitation, MM = Missing Value Source: NWS Daily Summary

Daily Weather History Graph

Daily Weather History Graph

Search for Another Location

Airport:

Trip Planner

Search our weather history database for the weather conditions in past years. The results will help you decide how hot, cold, wet, or windy it might be!

Date:

Astronomy

Dec. 16, 2012 Rise Set
Actual Time 6:40 AM CST 4:39 PM CST
Civil Twilight 6:12 AM CST 5:06 PM CST
Nautical Twilight 5:41 AM CST 5:37 PM CST
Astronomical Twilight 5:11 AM CST 6:07 PM CST
Moon 9:22 AM CST (12/16) 8:42 PM CST (12/16)
Length of Visible Light 10h 54m
Length of Day
9h 59m
Waxing Crescent, 16% of the Moon is Illuminated
Dec 16
Waxing Crescent
Dec 19
First Quarter
Dec 28
Full
Jan 4
Last Quarter
Jan 11
New

Hourly Weather History & Observations

Time (CST) Temp. Dew Point Humidity Pressure Visibility Wind Dir Wind Speed Gust Speed Precip Events Conditions
12:15 AM 61.0 °F 52.0 °F 72% 30.04 in 10.0 mi South 3.5 mph - N/A   Overcast
12:55 AM 61.0 °F 52.5 °F 74% 30.03 in 10.0 mi South 3.5 mph - N/A   Overcast
1:15 AM 61.0 °F 52.7 °F 74% 30.01 in 10.0 mi Calm Calm - N/A   Overcast
1:35 AM 61.0 °F 53.1 °F 75% 30.02 in 10.0 mi Calm Calm - N/A   Overcast
1:55 AM 61.0 °F 53.2 °F 76% 30.02 in 10.0 mi Calm Calm - N/A   Overcast
2:15 AM 59.9 °F 52.7 °F 77% 30.01 in 10.0 mi SE 3.5 mph - N/A   Overcast
2:55 AM 59.9 °F 53.1 °F 78% 30.00 in 10.0 mi South 3.5 mph - N/A   Mostly Cloudy
3:15 AM 59.9 °F 53.4 °F 79% 29.99 in 10.0 mi SSE 4.6 mph - N/A   Mostly Cloudy
3:35 AM 60.1 °F 53.8 °F 80% 29.99 in 10.0 mi South 3.5 mph - N/A   Overcast
3:55 AM 60.3 °F 54.0 °F 80% 29.99 in 10.0 mi South 3.5 mph - N/A   Overcast
4:15 AM 61.0 °F 54.5 °F 79% 29.99 in 10.0 mi South 3.5 mph - N/A   Overcast
4:35 AM 61.0 °F 54.7 °F 80% 29.99 in 10.0 mi SSE 3.5 mph - N/A   Overcast
4:55 AM 61.0 °F 55.0 °F 81% 29.99 in 10.0 mi Calm Calm - N/A   Overcast
5:15 AM 61.0 °F 55.0 °F 81% 29.99 in 10.0 mi Calm Calm - N/A   Overcast
5:35 AM 60.8 °F 54.9 °F 81% 29.98 in 10.0 mi SSE 3.5 mph - N/A   Overcast
5:55 AM 60.8 °F 55.2 °F 82% 29.98 in 10.0 mi Calm Calm - N/A   Overcast
6:15 AM 61.0 °F 55.2 °F 81% 29.99 in 10.0 mi Calm Calm - N/A   Overcast
6:35 AM 60.4 °F 54.9 °F 82% 29.99 in 10.0 mi Calm Calm - N/A   Overcast
7:15 AM 61.0 °F 55.4 °F 82% 30.01 in 10.0 mi South 3.5 mph - N/A   Overcast
7:35 AM 61.0 °F 55.4 °F 82% 30.01 in 10.0 mi South 4.6 mph - N/A   Overcast
7:55 AM 61.0 °F 55.4 °F 82% 29.99 in 10.0 mi South 4.6 mph - N/A   Overcast
8:15 AM 62.2 °F 56.3 °F 81% 29.99 in 10.0 mi SSE 5.8 mph - N/A   Overcast
8:35 AM 62.2 °F 56.3 °F 81% 30.00 in 10.0 mi SSE 3.5 mph - N/A   Overcast
8:55 AM 62.6 °F 56.5 °F 80% 30.01 in 10.0 mi South 6.9 mph - N/A   Overcast
9:15 AM 63.0 °F 56.8 °F 80% 30.01 in 10.0 mi South 6.9 mph - N/A   Overcast
9:35 AM 64.8 °F 58.1 °F 79% 30.00 in 10.0 mi South 5.8 mph - N/A Thunderstorm Overcast
9:55 AM 64.8 °F 58.1 °F 79% 29.99 in 10.0 mi South 5.8 mph - N/A   Overcast
10:15 AM 64.8 °F 58.1 °F 79% 29.97 in 10.0 mi South 3.5 mph - N/A   Overcast
10:35 AM 64.8 °F 58.3 °F 79% 29.98 in 10.0 mi SSW 4.6 mph - N/A   Overcast
10:55 AM 66.0 °F 59.9 °F 81% 29.96 in 10.0 mi Calm Calm - N/A   Overcast
11:15 AM 67.3 °F 61.2 °F 81% 29.96 in 10.0 mi South 4.6 mph - N/A   Overcast
11:35 AM 65.3 °F 59.9 °F 83% 29.95 in 10.0 mi South 3.5 mph - N/A Rain Light Rain
11:55 AM 66.6 °F 61.3 °F 83% 29.94 in 10.0 mi Calm Calm - N/A   Overcast
12:15 PM 67.3 °F 61.7 °F 82% 29.93 in 10.0 mi Calm Calm - N/A   Overcast
12:35 PM 67.3 °F 62.2 °F 84% 29.93 in 10.0 mi Calm Calm - N/A Rain Light Rain
12:55 PM 64.8 °F 60.8 °F 87% 29.92 in 5.0 mi Calm Calm - N/A Rain Light Rain
1:15 PM 64.6 °F 61.0 °F 88% 29.93 in 3.0 mi Calm Calm - 0.02 in Rain Rain
1:35 PM 62.8 °F 59.5 °F 89% 29.92 in 2.0 mi Calm Calm - 0.04 in Rain Light Rain
1:55 PM 64.4 °F 61.5 °F 90% 29.91 in 2.0 mi Calm Calm - 0.08 in Rain Light Rain
2:15 PM 64.8 °F 61.7 °F 90% 29.91 in 1.5 mi NW 6.9 mph - 0.12 in Rain Heavy Rain
2:35 PM 61.0 °F 57.7 °F 89% 29.91 in 2.5 mi North 6.9 mph 21.9 mph 0.34 in Rain Heavy Rain
2:55 PM 61.0 °F 57.7 °F 89% 29.91 in 3.0 mi North 9.2 mph - 0.45 in Rain Rain
3:15 PM 60.3 °F 56.7 °F 88% 29.91 in 5.0 mi NNE 3.5 mph - 0.05 in Rain , Thunderstorm Rain
3:35 PM 60.3 °F 56.8 °F 88% 29.91 in 3.0 mi NE 4.6 mph - 0.20 in Rain Heavy Rain
3:55 PM 59.9 °F 56.5 °F 88% 29.89 in 2.5 mi NE 4.6 mph - 0.33 in Rain Heavy Rain
4:15 PM 59.9 °F 56.5 °F 88% 29.91 in 2.5 mi NE 3.5 mph - 0.08 in Rain Heavy Rain
4:35 PM 59.9 °F 56.5 °F 88% 29.90 in 4.0 mi East 3.5 mph - 0.16 in Rain Rain
4:55 PM 59.9 °F 56.5 °F 88% 29.93 in 4.0 mi ENE 4.6 mph - 0.25 in Rain Heavy Rain
5:15 PM 59.9 °F 56.7 °F 89% 29.92 in 7.0 mi ENE 3.5 mph - 0.06 in Rain Rain
5:35 PM 59.9 °F 56.7 °F 89% 29.93 in 5.0 mi North 6.9 mph - 0.12 in Rain Heavy Rain
5:55 PM 59.9 °F 56.5 °F 88% 29.94 in 3.0 mi NE 5.8 mph - 0.23 in Rain Heavy Rain
6:15 PM 59.9 °F 56.7 °F 89% 29.94 in 5.0 mi ENE 3.5 mph - 0.06 in Rain Heavy Rain
6:35 PM 59.9 °F 56.7 °F 89% 29.95 in 7.0 mi North 5.8 mph - 0.13 in Rain Rain
6:55 PM 59.9 °F 56.7 °F 89% 29.95 in 7.0 mi NNE 3.5 mph - 0.18 in Rain Rain
7:15 PM 59.9 °F 56.7 °F 89% 29.98 in 5.0 mi Calm Calm - 0.05 in Rain Rain
7:35 PM 59.9 °F 56.7 °F 89% 29.96 in 7.0 mi East 4.6 mph - 0.09 in Rain Light Rain
7:55 PM 59.9 °F 56.7 °F 89% 29.96 in 10.0 mi ESE 4.6 mph - 0.11 in Rain Light Rain
8:15 PM 59.9 °F 56.7 °F 89% 29.95 in 10.0 mi Calm Calm - 0.02 in Rain Light Rain
8:35 PM 59.9 °F 56.7 °F 89% 29.94 in 10.0 mi East 3.5 mph - 0.02 in   Mostly Cloudy
8:55 PM 59.9 °F 56.5 °F 88% 29.95 in 10.0 mi Calm Calm - 0.03 in Rain Light Rain
9:15 PM 59.9 °F 56.5 °F 88% 29.95 in 10.0 mi Calm Calm - N/A Rain Light Rain
9:35 PM 59.9 °F 56.5 °F 88% 29.94 in 7.0 mi Calm Calm - 0.02 in Rain Rain
9:55 PM 57.9 °F 54.9 °F 90% 29.94 in 7.0 mi Calm Calm - 0.04 in Rain Light Rain
10:15 PM 57.9 °F 54.7 °F 89% 29.93 in 7.0 mi ESE 3.5 mph - 0.02 in Rain Rain
10:35 PM 58.1 °F 55.0 °F 90% 29.92 in 10.0 mi SE 4.6 mph - 0.04 in Rain Light Rain
10:55 PM 58.3 °F 55.4 °F 90% 29.89 in 10.0 mi SE 9.2 mph - 0.05 in Rain Light Rain
11:15 PM 57.7 °F 54.7 °F 90% 29.84 in 10.0 mi SE 9.2 mph - 0.02 in Rain Light Rain
11:35 PM 58.1 °F 55.0 °F 90% 29.88 in 10.0 mi SSE 4.6 mph - 0.02 in   Light Drizzle